Weather in Zarech'ye

Russia / Tver Oblast     57°12′06″N   33°00′21″E
temp.,
°C
wind,
m/s
gust,
m/s
humid.,
%
clouds,
%
prec.,
mm/h
press.,
hPa
HPBL,
m
22 may, sun
sun2200:00+5e412699 0.0 1008479
03:00+2ene412675 0.0 1009417
06:00+2ene311710 0.0 1009379
09:00+7ne46495 0.0 10091251
12:00+10ne45345 0.0 10081797
15:00+12nne46295 0.0 10082135
18:00+11nne46315 0.0 10082138
21:00+5n22555 0.0 100925
23 may, mon
mon2300:00+2n27700 0.0 1010137
03:000nnw24750 0.0 101183
06:00+1nnw310640 0.0 1011300
09:00+8nnw510393 0.0 10091167
12:00+12nnw69375 0.0 10081879
15:00+14nnw69315 0.0 10072260
18:00+14nnw510340 0.0 10071911
21:00+8nnw410482 0.0 1008450
24 may, tue
tue2400:00+4nw31072100 0.0 1009231
03:00+7nw41277100 0.0 1008630
06:00+7nw41080100 0.0 1008587
09:00+9nnw5940100 0.0 1009997
12:00+12nnw61132100 0.0 10091575
15:00+13nnw61028100 0.0 10092064
18:00+7nne5872100 0.0 1011821
21:00+5ne257398 0.0 1013519
25 may, wed
wed2500:00+4ne2476100 0.0 1014332
03:00+3ne137897 0.0 1015203
06:00+4ne237498 0.0 1015301
09:00+8ene124728 0.0 10161296
12:00+13ese11365 0.0 10151582
15:00+15se21325 0.0 10131905
18:00+14s2234100 0.0 10131910
21:00+9sse236397 0.0 101352
26 may, thu
thu2600:00+6s397456 0.0 1013189
03:00+5s2981100 0.0 1011233
06:00+7sse267681 0.0 1009195
09:00+11sse3568100 0.0 1006362
12:00+12se4875100 0.1 1004648
15:00+10ese51293100 2.1 1001770
18:00+10e51396100 9.0 998587
21:00+9ne3898100 22.8 995623